STELLA

Last updated on Sat Apr 13 2024 01:03:22 GMT+0100 (British Summer Time)

1 22824U 93061B 24103.62967986 -.00000031 00000+0 61851-5 0 9990 2 22824 98.8864 148.8690 0006975 36.7494 82.3165 14.27420794591278
UTC large
Height (km)
Speed (km/s)
/
Latitude / Longitude
Inclination (degrees)
Orbital Period (minutes)
Azimuth
Elevation
Range (km)
Doppler Factor

Next 0 passes for location: London (51.5072 / 0.1276)

Sorry there are no passes over London.